Weather in Conselheiro Lafaiete

Brazil     20°39′35″S   43°47′08″W
temp.,
°C
wind,
m/s
gust,
m/s
humid.,
%
clouds,
%
prec.,
mm/h
press.,
hPa
HPBL,
m
26 september, sun
sun2600:00+16e299581 4.3 1019334
03:00+15e119512 4.8 101815
06:00+15nne11929 0.2 101915
09:00+24nnw12520 0.2 1019600
12:00+31se13302 0.0 10172020
15:00+22s586199 0.7 1015313
18:00+17ese5109493 1.8 1019320
21:00+17n3690100 2.4 1022229
27 september, mon
mon2700:00+17n119379 0.0 102117
03:00+16ene119210 0.0 101911
06:00+15s11910 0.0 102010
09:00+23ese215835 0.0 1021615
12:00+29ese32340 0.0 10181698
15:00+30ese442755 0.0 10142412
18:00+23nw125132 0.0 101640
21:00+19se227236 0.8 101940
28 september, tue
tue2800:00+17se22858 0.0 101938
03:00+15se23954 0.0 101894
06:00+15ese139629 0.0 101999
09:00+23e22593 0.0 1019826
12:00+31se13321 0.0 10152601
15:00+31e552652 0.0 10112761
18:00+25ene484632 0.0 1013314
21:00+20ese12610 0.0 101515
29 september, wed
wed2900:00+18se11702 0.0 101516
03:00+16sse11815 0.0 101413
06:00+16ne11835 0.0 101513
09:00+27ene12435 0.0 1015783
12:00+33nw362564 0.0 10113276
15:00+31nw352721 0.1 10082392
18:00+24se3652100 0.1 1011146
21:00+21nne116656 0.2 101325
30 september, thu
thu3000:00+20se2672100 0.2 1014257
03:00+19ese128259 0.5 1012100
06:00+18e128858 0.0 1014117
09:00+23ese2261100 0.0 1014525
12:00+24sse236196 0.1 1013482
15:00+28ese12435 0.6 1009948
18:00+19ssw1494100 9.6 1013158
21:00+19se25920 9.8 1014148